05-05-2023, 00:00:03,    170,    0.0,   10.1,   0.00,   0.00, 1010.2,    0.2, -999.0
05-05-2023, 00:00:13,    171,    0.0,   10.1,   0.00,   0.00, 1010.2,    0.3, -999.0
05-05-2023, 00:00:23,    220,    0.7,   10.2,   0.00,   0.00, 1010.3,    0.3, -999.0
05-05-2023, 00:00:32,    210,    0.6,   10.1,   0.00,   0.00, 1010.3,    0.5, -999.0
05-05-2023, 00:00:43,    210,    0.0,   10.0,   0.00,   0.00, 1010.2,    0.5, -999.0
05-05-2023, 00:00:53,    221,    0.6,   10.1,   0.00,   0.00, 1010.2,    0.3, -999.0
05-05-2023, 00:01:03,    222,    0.4,   10.1,   0.00,   0.00, 1010.3,    0.5, -999.0
05-05-2023, 00:01:12,    223,    0.2,   10.1,   0.00,   0.00, 1010.3,    0.4, -999.0
05-05-2023, 00:01:23,    222,    0.1,   10.1,   0.00,   0.00, 1010.2,    0.5, -999.0
05-05-2023, 00:01:33,    222,    0.0,   10.1,   0.00,   0.00, 1010.2,    0.4, -999.0
05-05-2023, 00:01:42,    222,    0.0,   10.1,   0.00,   0.00, 1010.2,    0.4, -999.0
05-05-2023, 00:01:53,    211,    0.2,   10.1,   0.00,   0.00, 1010.3,    0.4, -999.0
05-05-2023, 00:02:03,    211,    0.3,   10.1,   0.00,   0.00, 1010.3,    0.7, -999.0
05-05-2023, 00:02:12,    211,    0.0,   10.1,   0.00,   0.00, 1010.2,    0.4, -999.0
05-05-2023, 00:02:22,    207,    0.0,   10.0,   0.00,   0.00, 1010.2,    0.4, -999.0
05-05-2023, 00:02:33,    184,    0.6,   10.0,   0.00,   0.00, 1010.3,    0.5, -999.0
05-05-2023, 00:02:43,    182,    0.0,   10.0,   0.00,   0.00, 1010.2,    0.4, -999.0
05-05-2023, 00:02:52,    183,    0.0,   10.1,   0.00,   0.00, 1010.2,    0.3, -999.0
05-05-2023, 00:03:02,    184,    0.2,   10.1,   0.00,   0.00, 1010.3,    0.5, -999.0
05-05-2023, 00:03:13,    207,    0.8,   10.1,   0.00,   0.00, 1010.3,    0.3, -999.0
05-05-2023, 00:03:22,    211,    1.3,   10.1,   0.00,   0.00, 1010.3,    0.4, -999.0
05-05-2023, 00:03:32,    196,    1.2,   10.1,   0.00,   0.00, 1010.4,    0.4, -999.0
05-05-2023, 00:03:42,    195,    0.6,   10.1,   0.00,   0.00, 1010.4,    0.4, -999.0
05-05-2023, 00:03:52,    216,    1.6,   10.1,   0.00,   0.00, 1010.3,    0.3, -999.0
05-05-2023, 00:04:02,    215,    0.9,   10.1,   0.00,   0.00, 1010.3,    0.4, -999.0
05-05-2023, 00:04:12,    213,    0.8,   10.1,   0.00,   0.00, 1010.3,    0.3, -999.0
05-05-2023, 00:04:22,    209,    0.2,   10.1,   0.00,   0.00, 1010.3,    0.3, -999.0
05-05-2023, 00:04:32,    209,    0.0,   10.1,   0.00,   0.00, 1010.2,    0.3, -999.0
05-05-2023, 00:04:42,    209,    0.0,   10.1,   0.00,   0.00, 1010.2,    0.5, -999.0
05-05-2023, 00:04:52,    209,    0.2,   10.1,   0.00,   0.00, 1010.3,    0.6, -999.0
05-05-2023, 00:05:02,    209,    0.0,   10.1,   0.00,   0.00, 1010.2,    0.5, -999.0
05-05-2023, 00:05:12,    166,    0.3,   10.1,   0.00,   0.00, 1010.2,    0.5, -999.0
05-05-2023, 00:05:22,    167,    0.0,   10.0,   0.00,   0.00, 1010.2,    0.3, -999.0
05-05-2023, 00:05:32,    194,    0.1,   10.1,   0.00,   0.00, 1010.2,    0.3, -999.0
05-05-2023, 00:05:42,    194,    0.0,   10.1,   0.00,   0.00, 1010.2,    0.3, -999.0
05-05-2023, 00:05:52,    197,    0.2,   10.0,   0.00,   0.00, 1010.2,    0.3, -999.0
05-05-2023, 00:06:02,    197,    0.3,   10.1,   0.00,   0.00, 1010.3,    0.4, -999.0
05-05-2023, 00:06:12,    139,    0.5,   10.0,   0.00,   0.00, 1010.3,    0.4, -999.0
05-05-2023, 00:06:22,    204,    0.7,   10.1,   0.00,   0.00, 1010.4,    0.3, -999.0
05-05-2023, 00:06:32,    203,    0.1,   10.0,   0.00,   0.00, 1010.2,    0.6, -999.0
05-05-2023, 00:06:42,    203,    0.0,   10.1,   0.00,   0.00, 1010.3,    0.5, -999.0
05-05-2023, 00:06:52,    203,    0.1,   10.1,   0.00,   0.00, 1010.2,    0.2, -999.0
05-05-2023, 00:07:02,    205,    0.0,   10.0,   0.00,   0.00, 1010.2,    0.3, -999.0
05-05-2023, 00:07:12,    205,    0.0,   10.0,   0.00,   0.00, 1010.2,    0.5, -999.0
05-05-2023, 00:07:22,    205,    0.0,   10.0,   0.00,   0.00, 1010.2,    0.6, -999.0
05-05-2023, 00:07:32,    203,    1.9,   10.1,   0.00,   0.00, 1010.3,    0.5, -999.0
05-05-2023, 00:07:42,    202,    0.3,   10.1,   0.00,   0.00, 1010.3,    0.5, -999.0
05-05-2023, 00:07:52,    202,    0.0,   10.1,   0.00,   0.00, 1010.2,    0.3, -999.0
05-05-2023, 00:08:02,    203,    0.0,   10.1,   0.00,   0.00, 1010.2,    0.5, -999.0
05-05-2023, 00:08:12,    203,    0.0,   10.1,   0.00,   0.00, 1010.2,    0.4, -999.0
05-05-2023, 00:08:22,    217,    0.0,   10.0,   0.00,   0.00, 1010.2,    0.3, -999.0
05-05-2023, 00:08:32,    217,    0.0,   10.1,   0.00,   0.00, 1010.2,    0.4, -999.0
05-05-2023, 00:08:42,    217,    0.0,   10.0,   0.00,   0.00, 1010.2,    0.3, -999.0
05-05-2023, 00:08:52,    216,    0.0,   10.1,   0.00,   0.00, 1010.2,    0.5, -999.0
05-05-2023, 00:09:02,    218,    0.0,   10.1,   0.00,   0.00, 1010.2,    0.3, -999.0
05-05-2023, 00:09:12,    212,    1.6,   10.1,   0.00,   0.00, 1010.3,    0.6, -999.0
05-05-2023, 00:09:21,    209,    0.9,   10.1,   0.00,   0.00, 1010.3,    0.5, -999.0
05-05-2023, 00:09:32,    209,    0.0,   10.1,   0.00,   0.00, 1010.2,    0.3, -999.0
05-05-2023, 00:09:42,    210,    0.1,   10.0,   0.00,   0.00, 1010.2,    0.4, -999.0
05-05-2023, 00:09:52,    211,    0.8,   10.1,   0.00,   0.00, 1010.3,    0.2, -999.0
05-05-2023, 00:10:01,    203,    2.1,   10.0,   0.00,   0.00, 1010.3,    0.4, -999.0
05-05-2023, 00:10:12,    202,    0.1,   10.0,   0.00,   0.00, 1010.2,    0.2, -999.0
05-05-2023, 00:10:22,    202,    0.2,   10.1,   0.00,   0.00, 1010.3,    0.6, -999.0
05-05-2023, 00:10:31,    206,    0.4,   10.1,   0.00,   0.00, 1010.3,    0.4, -999.0
05-05-2023, 00:10:41,    204,    0.8,   10.1,   0.00,   0.00, 1010.2,    0.3, -999.0
05-05-2023, 00:10:52,    210,    0.1,   10.1,   0.00,   0.00, 1010.2,    0.5, -999.0
05-05-2023, 00:11:01,    209,    0.0,   10.0,   0.00,   0.00, 1010.2,    0.4, -999.0
05-05-2023, 00:11:11,    209,    0.0,   10.0,   0.00,   0.00, 1010.2,    0.5, -999.0
05-05-2023, 00:11:21,    209,    0.0,    9.9,   0.00,   0.00, 1010.2,    0.5, -999.0
05-05-2023, 00:11:32,    209,    0.0,   10.0,   0.00,   0.00, 1010.2,    0.3, -999.0
05-05-2023, 00:11:43,    209,    0.0,   10.0,   0.00,   0.00, 1010.2,    0.4, -999.0
05-05-2023, 00:11:51,    209,    0.0,   10.1,   0.00,   0.00, 1010.2,    0.3, -999.0
05-05-2023, 00:12:01,    209,    0.0,   10.0,   0.00,   0.00, 1010.2,    0.3, -999.0
05-05-2023, 00:12:11,    209,    0.1,   10.0,   0.00,   0.00, 1010.2,    0.3, -999.0
05-05-2023, 00:12:21,    209,    0.0,   10.0,   0.00,   0.00, 1010.2,    0.3, -999.0
05-05-2023, 00:12:31,    193,    0.4,   10.0,   0.00,   0.00, 1010.2,    0.4, -999.0
05-05-2023, 00:12:41,    199,    0.6,   10.1,   0.00,   0.00, 1010.3,    0.5, -999.0
05-05-2023, 00:12:51,    198,    0.7,   10.1,   0.00,   0.00, 1010.2,    0.7, -999.0
05-05-2023, 00:13:01,    198,    0.2,   10.0,   0.00,   0.00, 1010.2,    0.2, -999.0
05-05-2023, 00:13:11,    198,    0.0,   10.0,   0.00,   0.00, 1010.1,    0.2, -999.0
05-05-2023, 00:13:21,    197,    0.0,   10.0,   0.00,   0.00, 1010.1,    0.3, -999.0
05-05-2023, 00:13:31,    197,    0.0,   10.0,   0.00,   0.00, 1010.1,    0.4, -999.0
05-05-2023, 00:13:41,    198,    0.0,   10.0,   0.00,   0.00, 1010.2,    0.3, -999.0
05-05-2023, 00:13:51,    201,    0.0,   10.0,   0.00,   0.00, 1010.2,    0.3, -999.0
05-05-2023, 00:14:01,    211,    0.2,   10.0,   0.00,   0.00, 1010.2,    0.2, -999.0
05-05-2023, 00:14:11,    211,    0.0,   10.0,   0.00,   0.00, 1010.1,    0.5, -999.0
05-05-2023, 00:14:21,    211,    0.0,   10.0,   0.00,   0.00, 1010.1,    0.3, -999.0
05-05-2023, 00:14:31,    211,    0.0,    9.9,   0.00,   0.00, 1010.1,    0.4, -999.0
05-05-2023, 00:14:41,    211,    0.0,   10.0,   0.00,   0.00, 1010.1,    0.5, -999.0
05-05-2023, 00:14:51,    210,    0.0,    9.9,   0.00,   0.00, 1010.1,    0.3, -999.0
05-05-2023, 00:15:01,    210,    0.0,   10.0,   0.00,   0.00, 1010.1,    0.3, -999.0
05-05-2023, 00:15:11,    210,    0.0,   10.0,   0.00,   0.00, 1010.1,    0.2, -999.0
05-05-2023, 00:15:21,    210,    0.1,   10.0,   0.00,   0.00, 1010.1,    0.4, -999.0
05-05-2023, 00:15:31,    210,    0.1,   10.0,   0.00,   0.00, 1010.1,    0.3, -999.0
05-05-2023, 00:15:41,    162,    0.4,    9.9,   0.00,   0.00, 1010.1,    0.3, -999.0
05-05-2023, 00:15:51,    174,    1.6,   10.1,   0.00,   0.00, 1010.2,    0.3, -999.0
05-05-2023, 00:16:01,    174,    0.3,   10.0,   0.00,   0.00, 1010.1,    0.2, -999.0
05-05-2023, 00:16:11,    212,    0.7,   10.0,   0.00,   0.00, 1010.2,    0.8, -999.0
05-05-2023, 00:16:21,    212,    0.3,   10.0,   0.00,   0.00, 1010.2,    0.4, -999.0
05-05-2023, 00:16:31,    212,    0.0,   10.0,   0.00,   0.00, 1010.1,    0.3, -999.0
05-05-2023, 00:16:41,    209,    0.1,   10.0,   0.00,   0.00, 1010.1,    0.1, -999.0
05-05-2023, 00:16:51,    219,    1.0,   10.0,   0.00,   0.00, 1010.2,    0.5, -999.0
05-05-2023, 00:17:01,    219,    0.2,   10.0,   0.00,   0.00, 1010.2,    0.6, -999.0
05-05-2023, 00:17:10,    223,    0.3,   10.0,   0.00,   0.00, 1010.1,    0.2, -999.0
05-05-2023, 00:17:21,    220,    0.8,   10.1,   0.00,   0.00, 1010.2,    0.1, -999.0
05-05-2023, 00:17:31,    220,    0.0,    9.9,   0.00,   0.00, 1010.1,    0.4, -999.0
05-05-2023, 00:17:40,    221,    0.0,   10.0,   0.00,   0.00, 1010.1,    0.4, -999.0
05-05-2023, 00:17:51,    222,    0.4,   10.0,   0.00,   0.00, 1010.2,    0.2, -999.0
05-05-2023, 00:18:01,    203,    0.7,   10.0,   0.00,   0.00, 1010.2,    0.8, -999.0
05-05-2023, 00:18:11,    205,    0.9,   10.0,   0.00,   0.00, 1010.2,    1.0, -999.0
05-05-2023, 00:18:20,    205,    0.1,   10.0,   0.00,   0.00, 1010.2,    0.5, -999.0
05-05-2023, 00:18:31,    206,    0.0,    9.9,   0.00,   0.00, 1010.1,    0.3, -999.0
05-05-2023, 00:18:41,    205,    0.0,    9.9,   0.00,   0.00, 1010.1,    0.4, -999.0
05-05-2023, 00:18:50,    205,    0.0,    9.9,   0.00,   0.00, 1010.2,    0.4, -999.0
05-05-2023, 00:19:00,    206,    0.6,   10.0,   0.00,   0.00, 1010.2,    0.3, -999.0
05-05-2023, 00:19:11,    205,    0.0,   10.0,   0.00,   0.00, 1010.1,    0.3, -999.0
05-05-2023, 00:19:20,    205,    0.0,   10.0,   0.00,   0.00, 1010.1,    0.5, -999.0
05-05-2023, 00:19:30,    205,    0.0,    9.9,   0.00,   0.00, 1010.1,    0.4, -999.0
05-05-2023, 00:19:40,    205,    0.0,   10.0,   0.00,   0.00, 1010.2,    0.4, -999.0
05-05-2023, 00:19:51,    205,    0.0,   10.0,   0.00,   0.00, 1010.1,    0.2, -999.0
05-05-2023, 00:20:00,    205,    0.1,   10.0,   0.00,   0.00, 1010.2,    0.2, -999.0
05-05-2023, 00:20:10,    204,    0.4,   10.0,   0.00,   0.00, 1010.2,    0.3, -999.0
05-05-2023, 00:20:20,    211,    0.1,   10.0,   0.00,   0.00, 1010.2,    0.4, -999.0
05-05-2023, 00:20:30,    211,    0.4,   10.0,   0.00,   0.00, 1010.2,    0.6, -999.0
05-05-2023, 00:20:40,    211,    0.4,   10.1,   0.00,   0.00, 1010.2,    0.2, -999.0
05-05-2023, 00:20:50,    211,    0.3,   10.1,   0.00,   0.00, 1010.2,    0.4, -999.0
05-05-2023, 00:21:00,    191,    1.5,   10.0,   0.00,   0.00, 1010.2,    0.1, -999.0
05-05-2023, 00:21:10,    195,    0.6,   10.0,   0.00,   0.00, 1010.2,    0.1, -999.0
05-05-2023, 00:21:20,    193,    0.9,   10.1,   0.00,   0.00, 1010.2,    0.6, -999.0
05-05-2023, 00:21:30,    193,    0.3,   10.0,   0.00,   0.00, 1010.2,    0.4, -999.0
05-05-2023, 00:21:40,    193,    0.0,    9.9,   0.00,   0.00, 1010.2,    0.4, -999.0
05-05-2023, 00:21:50,    193,    0.0,    9.9,   0.00,   0.00, 1010.2,    0.2, -999.0
05-05-2023, 00:22:00,    218,    1.5,    9.9,   0.00,   0.00, 1010.3,    0.4, -999.0
05-05-2023, 00:22:10,    219,    1.1,   10.0,   0.00,   0.00, 1010.2,    0.5, -999.0
05-05-2023, 00:22:20,    219,    0.0,   10.0,   0.00,   0.00, 1010.2,    0.3, -999.0
05-05-2023, 00:22:30,    219,    0.4,   10.0,   0.00,   0.00, 1010.2,    0.7, -999.0
05-05-2023, 00:22:40,    219,    0.0,    9.8,   0.00,   0.00, 1010.1,    0.4, -999.0
05-05-2023, 00:22:50,    218,    0.4,    9.9,   0.00,   0.00, 1010.2,    0.9, -999.0
05-05-2023, 00:23:00,    218,    0.1,   10.0,   0.00,   0.00, 1010.2,    0.6, -999.0
05-05-2023, 00:23:10,    218,    0.3,   10.0,   0.00,   0.00, 1010.3,    0.3, -999.0
05-05-2023, 00:23:20,    218,    0.2,   10.0,   0.00,   0.00, 1010.3,    0.7, -999.0
05-05-2023, 00:23:30,    219,    0.6,   10.0,   0.00,   0.00, 1010.2,    0.3, -999.0
05-05-2023, 00:23:40,    219,    0.0,   10.0,   0.00,   0.00, 1010.1,    0.4, -999.0
05-05-2023, 00:23:50,    216,    0.0,    9.9,   0.00,   0.00, 1010.2,    0.7, -999.0
05-05-2023, 00:24:00,    201,    1.0,   10.0,   0.00,   0.00, 1010.2,    0.0, -999.0
05-05-2023, 00:24:10,    201,    0.3,   10.0,   0.00,   0.00, 1010.2,    0.1, -999.0
05-05-2023, 00:24:20,    201,    0.6,    9.9,   0.00,   0.00, 1010.2,    0.8, -999.0
05-05-2023, 00:24:30,    200,    0.4,    9.9,   0.00,   0.00, 1010.2,    0.7, -999.0
05-05-2023, 00:24:40,    200,    0.1,   10.0,   0.00,   0.00, 1010.2,    0.3, -999.0
05-05-2023, 00:24:49,    204,    0.1,   10.0,   0.00,   0.00, 1010.2,    0.2, -999.0
05-05-2023, 00:25:00,    205,    0.0,    9.9,   0.00,   0.00, 1010.1,    0.6, -999.0
05-05-2023, 00:25:10,    204,    0.0,    9.9,   0.00,   0.00, 1010.1,    0.3, -999.0
05-05-2023, 00:25:20,    204,    0.0,    9.9,   0.00,   0.00, 1010.2,    0.5, -999.0
05-05-2023, 00:25:30,    197,    0.1,   10.0,   0.00,   0.00, 1010.2,    0.6, -999.0
05-05-2023, 00:25:40,    200,    0.3,   10.0,   0.00,   0.00, 1010.2,    0.4, -999.0
05-05-2023, 00:25:50,    200,    0.0,   10.0,   0.00,   0.00, 1010.1,    0.3, -999.0
05-05-2023, 00:25:59,    192,    0.5,   10.0,   0.00,   0.00, 1010.2,    1.0, -999.0
05-05-2023, 00:26:09,    193,    0.1,    9.9,   0.00,   0.00, 1010.2,    0.5, -999.0
05-05-2023, 00:26:20,    192,    0.1,    9.9,   0.00,   0.00, 1010.2,    0.2, -999.0
05-05-2023, 00:26:30,    192,    0.0,    9.9,   0.00,   0.00, 1010.2,    0.3, -999.0
05-05-2023, 00:26:39,    192,    0.0,    9.7,   0.00,   0.00, 1010.1,    0.4, -999.0
05-05-2023, 00:26:50,    191,    0.0,   10.0,   0.00,   0.00, 1010.1,    0.4, -999.0
05-05-2023, 00:27:00,    191,    0.1,   10.0,   0.00,   0.00, 1010.2,    0.4, -999.0
05-05-2023, 00:27:09,    192,    0.3,    9.8,   0.00,   0.00, 1010.2,    0.5, -999.0
05-05-2023, 00:27:19,    192,    0.0,    9.8,   0.00,   0.00, 1010.1,    0.3, -999.0
05-05-2023, 00:27:30,    193,    0.0,    9.8,   0.00,   0.00, 1010.1,    0.5, -999.0
05-05-2023, 00:27:39,    193,    0.0,    9.9,   0.00,   0.00, 1010.1,    0.4, -999.0
05-05-2023, 00:27:49,    192,    0.1,    9.9,   0.00,   0.00, 1010.1,    0.4, -999.0
05-05-2023, 00:27:59,    180,    1.0,   10.0,   0.00,   0.00, 1010.2,    0.5, -999.0
05-05-2023, 00:28:10,    179,    0.2,   10.0,   0.00,   0.00, 1010.1,    0.3, -999.0
05-05-2023, 00:28:19,    179,    0.0,   10.0,   0.00,   0.00, 1010.1,    0.2, -999.0
05-05-2023, 00:28:29,    179,    0.0,    9.9,   0.00,   0.00, 1010.1,    0.5, -999.0
05-05-2023, 00:28:39,    224,    0.4,    9.9,   0.00,   0.00, 1010.2,    0.5, -999.0
05-05-2023, 00:28:49,    219,    0.2,    9.9,   0.00,   0.00, 1010.2,    0.5, -999.0
05-05-2023, 00:28:59,    219,    0.0,    9.9,   0.00,   0.00, 1010.1,    0.3, -999.0
05-05-2023, 00:29:09,    182,    0.5,    9.9,   0.00,   0.00, 1010.2,    0.1, -999.0
05-05-2023, 00:29:19,    201,    0.8,   10.0,   0.00,   0.00, 1010.2,    0.6, -999.0
05-05-2023, 00:29:29,    225,    1.4,    9.9,   0.00,   0.00, 1010.2,    0.5, -999.0
05-05-2023, 00:29:39,    217,    0.1,    9.9,   0.00,   0.00, 1010.1,    0.3, -999.0
05-05-2023, 00:29:49,    174,    0.1,    9.9,   0.00,   0.00, 1010.1,    0.4, -999.0
05-05-2023, 00:29:59,    170,    0.2,    9.9,   0.00,   0.00, 1010.2,    0.5, -999.0
05-05-2023, 00:30:09,    176,    0.0,    9.8,   0.00,   0.00, 1010.1,    0.2, -999.0
05-05-2023, 00:30:19,    172,    1.1,   10.0,   0.00,   0.00, 1010.2,    0.3, -999.0
05-05-2023, 00:30:29,    167,    1.0,    9.9,   0.00,   0.00, 1010.2,    0.5, -999.0
05-05-2023, 00:30:39,    192,    0.5,    9.9,   0.00,   0.00, 1010.2,    0.3, -999.0
05-05-2023, 00:30:49,    194,    0.5,   10.0,   0.00,   0.00, 1010.2,    0.5, -999.0
05-05-2023, 00:30:59,    195,    0.2,   10.0,   0.00,   0.00, 1010.2,    0.3, -999.0
05-05-2023, 00:31:09,    195,    0.0,    9.9,   0.00,   0.00, 1010.1,    0.6, -999.0
05-05-2023, 00:31:19,    195,    0.0,    9.8,   0.00,   0.00, 1010.1,    0.7, -999.0
05-05-2023, 00:31:29,    196,    0.1,    9.9,   0.00,   0.00, 1010.1,    0.2, -999.0
05-05-2023, 00:31:39,    190,    0.2,   10.0,   0.00,   0.00, 1010.1,    0.4, -999.0
05-05-2023, 00:31:49,    190,    0.7,   10.0,   0.00,   0.00, 1010.2,    0.3, -999.0
05-05-2023, 00:31:59,    190,    0.4,   10.0,   0.00,   0.00, 1010.2,    0.4, -999.0
05-05-2023, 00:32:09,    193,    0.0,    9.9,   0.00,   0.00, 1010.1,    0.2, -999.0
05-05-2023, 00:32:19,    193,    0.0,    9.9,   0.00,   0.00, 1010.1,    0.3, -999.0
05-05-2023, 00:32:29,    193,    0.0,    9.9,   0.00,   0.00, 1010.1,    0.5, -999.0
05-05-2023, 00:32:39,    192,    0.0,    9.9,   0.00,   0.00, 1010.1,    0.3, -999.0
05-05-2023, 00:32:49,    190,    0.0,    9.9,   0.00,   0.00, 1010.1,    0.1, -999.0
05-05-2023, 00:32:59,    190,    0.0,    9.9,   0.00,   0.00, 1010.1,    0.4, -999.0
05-05-2023, 00:33:09,    190,    0.0,    9.7,   0.00,   0.00, 1010.1,    0.1, -999.0
05-05-2023, 00:33:19,    206,    0.1,    9.9,   0.00,   0.00, 1010.1,    0.5, -999.0
05-05-2023, 00:33:29,    203,    0.2,    9.9,   0.00,   0.00, 1010.2,    0.2, -999.0
05-05-2023, 00:33:39,    203,    0.4,   10.0,   0.00,   0.00, 1010.2,    0.4, -999.0
05-05-2023, 00:33:48,    204,    0.3,   10.0,   0.00,   0.00, 1010.2,    0.4, -999.0
05-05-2023, 00:33:59,    203,    0.0,   10.0,   0.00,   0.00, 1010.1,    0.5, -999.0
05-05-2023, 00:34:09,    203,    0.0,    9.9,   0.00,   0.00, 1010.1,    0.5, -999.0
05-05-2023, 00:34:18,    205,    0.0,    9.9,   0.00,   0.00, 1010.1,    0.3, -999.0
05-05-2023, 00:34:29,    205,    0.2,    9.9,   0.00,   0.00, 1010.1,    0.3, -999.0
05-05-2023, 00:34:39,    205,    0.0,   10.0,   0.00,   0.00, 1010.1,    0.4, -999.0
05-05-2023, 00:34:48,    205,    0.0,    9.9,   0.00,   0.00, 1010.1,    0.3, -999.0
05-05-2023, 00:34:58,    205,    0.4,    9.9,   0.00,   0.00, 1010.2,    0.6, -999.0
05-05-2023, 00:35:09,    197,    0.1,    9.9,   0.00,   0.00, 1010.1,    0.4, -999.0
05-05-2023, 00:35:19,    197,    0.2,    9.9,   0.00,   0.00, 1010.2,    0.3, -999.0
05-05-2023, 00:35:28,    245,    2.3,    9.9,   0.00,   0.00, 1010.2,    0.4, -999.0
05-05-2023, 00:35:38,    225,    1.7,    9.9,   0.00,   0.00, 1010.2,    0.5, -999.0
05-05-2023, 00:35:49,    209,    0.8,    9.9,   0.00,   0.00, 1010.1,    0.4, -999.0
05-05-2023, 00:35:58,    207,    0.2,    9.9,   0.00,   0.00, 1010.1,    0.5, -999.0
05-05-2023, 00:36:08,    207,    0.3,    9.9,   0.00,   0.00, 1010.1,    0.4, -999.0
05-05-2023, 00:36:18,    206,    0.2,    9.9,   0.00,   0.00, 1010.1,    0.4, -999.0
05-05-2023, 00:36:29,    205,    0.0,    9.9,   0.00,   0.00, 1010.1,    0.6, -999.0
05-05-2023, 00:36:38,    206,    0.0,    9.9,   0.00,   0.00, 1010.1,    0.4, -999.0
05-05-2023, 00:36:48,    206,    0.0,    9.9,   0.00,   0.00, 1010.1,    0.3, -999.0
05-05-2023, 00:36:58,    205,    0.3,   10.0,   0.00,   0.00, 1010.1,    0.5, -999.0
05-05-2023, 00:37:08,    204,    0.0,    9.9,   0.00,   0.00, 1010.1,    0.4, -999.0
05-05-2023, 00:37:18,    208,    0.0,    9.8,   0.00,   0.00, 1010.0,    0.3, -999.0
05-05-2023, 00:37:28,    213,    1.0,   10.0,   0.00,   0.00, 1010.2,    0.3, -999.0
05-05-2023, 00:37:38,    196,    0.5,    9.8,   0.00,   0.00, 1010.2,    0.4, -999.0
05-05-2023, 00:37:48,    166,    1.2,    9.9,   0.00,   0.00, 1010.2,    0.5, -999.0
05-05-2023, 00:37:58,    166,    0.0,    9.8,   0.00,   0.00, 1010.0,    0.4, -999.0
05-05-2023, 00:38:08,    165,    0.0,    9.9,   0.00,   0.00, 1010.0,    0.2, -999.0
05-05-2023, 00:38:18,    166,    0.2,    9.9,   0.00,   0.00, 1010.1,    0.4, -999.0
05-05-2023, 00:38:28,    166,    0.0,    9.8,   0.00,   0.00, 1010.0,    0.4, -999.0
05-05-2023, 00:38:38,    166,    0.0,    9.8,   0.00,   0.00, 1010.0,    0.2, -999.0
05-05-2023, 00:38:48,    166,    0.0,    9.8,   0.00,   0.00, 1010.0,    0.2, -999.0
05-05-2023, 00:38:58,    166,    0.0,    9.8,   0.00,   0.00, 1010.0,    0.3, -999.0
05-05-2023, 00:39:08,    167,    0.0,    9.8,   0.00,   0.00, 1010.0,    0.3, -999.0
05-05-2023, 00:39:18,    209,    0.3,    9.9,   0.00,   0.00, 1010.2,    0.5, -999.0
05-05-2023, 00:39:28,    207,    1.1,   10.0,   0.00,   0.00, 1010.1,    0.3, -999.0
05-05-2023, 00:39:38,    198,    1.7,    9.9,   0.00,   0.00, 1010.2,    0.4, -999.0
05-05-2023, 00:39:48,    205,    0.9,    9.9,   0.00,   0.00, 1010.2,    0.4, -999.0
05-05-2023, 00:39:58,    204,    0.0,    9.8,   0.00,   0.00, 1010.1,    0.5, -999.0
05-05-2023, 00:40:08,    210,    0.0,    9.8,   0.00,   0.00, 1010.0,    0.3, -999.0
05-05-2023, 00:40:18,    173,    0.7,    9.9,   0.00,   0.00, 1010.1,    0.4, -999.0
05-05-2023, 00:40:28,    173,    0.9,    9.9,   0.00,   0.00, 1010.2,    0.4, -999.0
05-05-2023, 00:40:38,    173,    0.2,   10.0,   0.00,   0.00, 1010.1,    0.5, -999.0
05-05-2023, 00:40:48,    173,    0.0,    9.9,   0.00,   0.00, 1010.1,    0.3, -999.0
05-05-2023, 00:40:58,    173,    0.0,   10.0,   0.00,   0.00, 1010.0,    0.4, -999.0
05-05-2023, 00:41:08,    210,    0.2,    9.9,   0.00,   0.00, 1010.1,    0.3, -999.0
05-05-2023, 00:41:18,    209,    0.0,    9.8,   0.00,   0.00, 1010.0,    0.4, -999.0
05-05-2023, 00:41:28,    209,    0.0,    9.8,   0.00,   0.00, 1010.1,    0.4, -999.0
05-05-2023, 00:41:38,    210,    0.1,    9.8,   0.00,   0.00, 1010.1,    0.4, -999.0
05-05-2023, 00:41:48,    209,    0.0,    9.8,   0.00,   0.00, 1010.0,    0.6, -999.0
05-05-2023, 00:41:58,    210,    0.0,    9.9,   0.00,   0.00, 1010.0,    0.2, -999.0
05-05-2023, 00:42:07,    210,    0.0,    9.8,   0.00,   0.00, 1010.0,    0.4, -999.0
05-05-2023, 00:42:18,    210,    0.0,    9.8,   0.00,   0.00, 1010.0,    0.4, -999.0
05-05-2023, 00:42:28,    210,    0.0,    9.8,   0.00,   0.00, 1010.0,    0.4, -999.0
05-05-2023, 00:42:37,    209,    0.0,    9.7,   0.00,   0.00, 1010.0,    0.3, -999.0
05-05-2023, 00:42:48,    177,    0.7,    9.8,   0.00,   0.00, 1010.1,    0.4, -999.0
05-05-2023, 00:42:58,    187,    0.7,    9.9,   0.00,   0.00, 1010.1,    0.4, -999.0
05-05-2023, 00:43:07,    175,    1.2,    9.9,   0.00,   0.00, 1010.2,    0.4, -999.0
05-05-2023, 00:43:17,    174,    0.0,    9.8,   0.00,   0.00, 1010.0,    0.4, -999.0
05-05-2023, 00:43:28,    181,    0.0,    9.8,   0.00,   0.00, 1010.0,    0.4, -999.0
05-05-2023, 00:43:38,    180,    0.0,    9.8,   0.00,   0.00, 1010.0,    0.2, -999.0
05-05-2023, 00:43:47,    179,    0.0,    9.8,   0.00,   0.00, 1010.1,    0.5, -999.0
05-05-2023, 00:43:57,    179,    0.0,    9.8,   0.00,   0.00, 1010.0,    0.4, -999.0
05-05-2023, 00:44:08,    179,    0.0,    9.8,   0.00,   0.00, 1010.0,    0.3, -999.0
05-05-2023, 00:44:17,    179,    0.0,    9.8,   0.00,   0.00, 1010.0,    0.5, -999.0
05-05-2023, 00:44:27,    179,    0.0,    9.8,   0.00,   0.00, 1010.0,    0.5, -999.0
05-05-2023, 00:44:37,    179,    0.2,    9.9,   0.00,   0.00, 1010.1,    0.5, -999.0
05-05-2023, 00:44:48,    202,    0.5,    9.8,   0.00,   0.00, 1010.1,    0.5, -999.0
05-05-2023, 00:44:57,    199,    0.6,    9.9,   0.00,   0.00, 1010.2,    0.5, -999.0
05-05-2023, 00:45:07,    200,    0.0,    9.8,   0.00,   0.00, 1010.0,    0.4, -999.0
05-05-2023, 00:45:17,    199,    0.3,    9.7,   0.00,   0.00, 1010.1,    0.4, -999.0
05-05-2023, 00:45:27,    205,    0.2,    9.9,   0.00,   0.00, 1010.1,    0.4, -999.0
05-05-2023, 00:45:37,    204,    0.0,    9.8,   0.00,   0.00, 1010.1,    0.4, -999.0
05-05-2023, 00:45:47,    204,    0.0,    9.8,   0.00,   0.00, 1010.0,    0.4, -999.0
05-05-2023, 00:45:57,    202,    0.0,    9.9,   0.00,   0.00, 1010.0,    0.4, -999.0
05-05-2023, 00:46:07,    201,    0.2,    9.9,   0.00,   0.00, 1010.1,    0.5, -999.0
05-05-2023, 00:46:17,    198,    0.0,    9.8,   0.00,   0.00, 1010.0,    0.4, -999.0
05-05-2023, 00:46:27,    198,    0.1,    9.9,   0.00,   0.00, 1010.1,    0.5, -999.0
05-05-2023, 00:46:37,    200,    0.2,    9.9,   0.00,   0.00, 1010.1,    0.3, -999.0
05-05-2023, 00:46:47,    209,    1.6,    9.9,   0.00,   0.00, 1010.2,    0.5, -999.0